Location: ?????? ??????
(44.3742°N, 135.2221°E)
Time: 00:41:29
(UTC+00:00)

Cosmos 1269 Rocket - Pass Details

Date: 19 May 2025
Orbit: 768 x 776 km, 74.1° (Epoch: 13 June)

Event Time Altitude Azimuth Distance (km) Brightness Sun altitude
Exits shadow 18:15:50 12° 204° (SSW) 2,151 5.8 -11.1°
Maximum altitude 18:20:40 80° 291° (WNW) 786 4.0 -10.5°
Drops below altitude 10° 18:25:58 10° 19° (NNE) 2,322 7.5 -9.8°
Sets 18:28:21 0° 20° (NNE) 3,254 8.4 -9.5°
